{"data":{"norad_id":48048,"epoch":"2026-09-18T21:06:06.909696Z","epoch_age_seconds":161927,"freshness":"FRESH","line1":"1 48048U 21025G   26261.87924664  .00000243  00000+0  62929-3 0  9996","line2":"2 48048  87.8928 301.5752 0001713  99.2789 260.8534 13.13470413265825","mean_motion":13.13470413,"eccentricity":0.0001713,"inclination_deg":87.8928,"raan_deg":301.5752,"arg_perigee_deg":99.2789,"mean_anomaly_deg":260.8534,"bstar":0.00062929,"rev_number":26582,"period_min":109.63322704095,"perigee_km":1208.4640018943,"apogee_km":1211.0636167115,"semimajor_km":7587.9008093029,"source":"CELESTRAK","updated_at":"2026-09-20T09:00:44.584835Z"}}